www.pogodaiklimat.ru

Погода и климат >> Архив погоды >> Россия >> Чукотка >> Анадырь


АРХИВ ПОГОДЫ в Анадыре

Время (UTC), дата Ветер
(напр.,м/с)
 
Видим.   Явления Облачность Т
(С)
Тd
(С)
f
(%)
Тe
(С)
Тes
(С)
Комфортность P
(гПа)
Po
(гПа)
Тmin
(С)
Tmax
(С)
R
(мм)
R24
(мм)
S
(см)
03 13.11 С 3
{5}
50 км 9/8 600 м
[Cb cap Ac trans]
-7.0 -14.4 56 -12 -12 тепло 1030.2 1022.2
06 13.11 СВ 5
{7}
50 км 9/9 600 м
[Cb cap]
-3.7 -6.2 83 -11 -11 тепло 1028.9 1020.9 -3.5
09 13.11 В 12
{15}
50 км 10/10 600 м
[Cb cap]
-1.7 -4.4 82 -11 -11 тепло 1028.7 1020.9
12 13.11 СВ 15
{19}
50 км 10/10 600 м
[Cb cap]
-1.7 -4.1 84 -12 -12 тепло 1027.8 1020.0
15 13.11 СВ 15
{19}
50 км 10/10 600 м
[Cb cap]
-1.5 -3.8 84 -12 -12 тепло 1025.6 1017.8
18 13.11 В 19
{23}
50 км 10/10 600 м
[Cb cap]
-0.4 -1.9 90 -11 -11 тепло 1022.3 1014.6 -4.4 2
21 13.11 В 23
{27}
5000 м ливневой дождь 10/10 300 м
[Cb cap]
0.0 -1.2 92 -11 -11 тепло 1018.7 1011.0
00 14.11 В 23
{27}
5000 м ливневой дождь со снегом 10/10 300 м
[Cb cap]
0.0 -0.3 98 -11 -11 тепло 1014.0 1006.3
03 14.11 В 27
{31}
7000 м ливневой дождь со снегом 10/10 300 м
[Cb cap]
+0.6 +0.3 98 -11 -11 тепло 1008.7 1001.0
06 14.11 В 27
{31}
11 км слабый ливневой дождь 10/10 600 м
[Cb cap]
+1.2 +0.9 98 -10 -10 тепло 1007.9 1000.2 +1.2 1
09 14.11 В 27
{31}
50 км {ливн. осадки} 10/10 600 м
[Cb cap]
+1.5 +1.2 98 -10 -10 тепло 1005.0 997.3
12 14.11 В 27
{31}
50 км {ливн. осадки} 10/10 600 м
[Cb cap]
+2.3 +2.1 99 -9 -9 тепло 1002.3 995.3
15 14.11 В 27
{31}
20 км слабый ливневой дождь 10/10 600 м
[Cb cap]
+3.7 +3.5 99 -7 -7 тепло 1000.2 992.8
18 14.11 В 23
{27}
200 м туман {ливн. осадки} ?/? +2.8 +2.8 100 -7 -7 тепло 998.8 991.4 +1.1 0.0 0
21 14.11 В 23
{27}
200 м туман ?/? +2.6 +2.6 100 -8 -8 тепло 998.3 990.9
00 15.11 ЮВ 19
{23}
50 км {туман} 9/8 600 м
[Cb cap Ac trans]
+3.0 +2.5 97 -6 -6 тепло 998.1 990.7
03 15.11 ЮВ 12 50 км 9/6 600 м
[Cb cap Ac trans]
+2.7 +0.9 88 -5 -5 тепло 998.7 991.3
06 15.11 ЮВ 5 50 км 6/3 600 м
[Sc Ac trans]
+0.6 -1.4 86 -5 -5 тепло 1000.4 992.8 +3.5
09 15.11 ЮВ 3 50 км 9/6 600 м
[Sc Ac trans]
+0.6 -1.7 85 -4 -4 тепло 1001.5 993.9
12 15.11 З 3 7000 м слабый ливневой снег 10/10 600 м
[Cb cap]
+0.4 -1.0 90 -4 -4 тепло 1003.2 995.5
15 15.11 СЗ 7 14 км слабый ливневой снег 10/10 600 м
[Cb cap]
-2.6 -4.9 84 -10 -10 тепло 1005.0 997.3
18 15.11 СЗ 7 50 км {ливн. осадки} 8/8 600 м
[Cb cap]
-4.4 -6.4 86 -13 -13 тепло 1006.9 999.1 -4.4 0.5 1
21 15.11 З 9 50 км {ливн. осадки} 9/9 600 м
[Cb cap]
-5.7 -7.9 84 -15 -15 по сезону 1008.2 1000.4 -5.7
00 16.11 З 9 50 км {ливн. осадки} 6/3 600 м
[Sc Ac trans]
-5.9 -10.2 72 -15 -15 по сезону 1009.5 1001.7
03 16.11 З 1 50 км 3/0
[Ac trans Ci fib]
-7.6 -12.6 67 -10 -10 тепло 1009.0 1001.2
06 16.11 СЗ 1 50 км 8/0
[Ac trans]
-7.8 -13.9 62 -10 -10 тепло 1008.1 1000.2 -4.3 0.0
09 16.11 З 1 15 км слабый ливневой снег 10/10 600 м
[Cb cap]
-6.8 -11.0 72 -9 -9 тепло 1007.2 999.4
12 16.11 СЗ 5 8000 м слабый ливневой снег 10/10 300 м
[Cb cap]
-6.6 -9.8 78 -14 -14 тепло 1008.6 1000.8
15 16.11 СЗ 15 50 км позёмок {ливн. осадки, метель} 9/9 600 м
[Cb cap]
-7.3 -9.8 82 -19 -19 по сезону 1011.6 1003.8
18 16.11 СЗ 15 50 км позёмок {ливн. осадки, метель} 6/3 600 м
[Sc Ac trans]
-5.7 -9.1 77 -17 -17 по сезону 1013.1 1005.2 -7.4 1 2
21 16.11 СЗ 15 50 км позёмок {метель} 3/3 600 м
[Sc]
-5.0 -9.1 73 -16 -16 по сезону 1017.2 1009.3
00 17.11 З 9 50 км {метель} 3/3 600 м
[Sc]
-4.5 -7.6 79 -14 -14 тепло 1020.1 1012.2
03 17.11 З 12 50 км 5/0
[Ac trans Ci fib]
-4.6 -7.3 81 -15 -15 тепло 1021.4 1013.5
06 17.11 СЗ 7 50 км 8/0
[Ac trans Ci fib]
-4.0 -7.0 80 -12 -12 тепло 1023.2 1015.2 -4.0
09 17.11 СЗ 3 50 км 9/0
[Ac trans Ci fib]
-5.1 -7.6 83 -11 -11 тепло 1024.0 1016.0
12 17.11 СЗ 1 50 км 6/0
[Ac trans Ci fib]
-6.3 -8.6 84 -9 -9 тепло 1023.9 1015.9
15 17.11 СЗ 3 50 км 9/0
[Ac trans Ci fib]
-6.2 -11.6 66 -12 -12 тепло 1022.5 1014.6
18 17.11 ЮВ 3 50 км 8/5 600 м
[Sc Ci fib]
-4.8 -11.0 62 -10 -10 тепло 1020.7 1012.8 -7.5 1
21 17.11 В 15 20 км 9/9 600 м
[Cb cap]
-2.4 -7.2 70 -13 -13 тепло 1017.4 1009.7
00 18.11 ЮВ 15 3000 м слабый ливневой снег {метель} 10/10 300 м
[Cb cap]
-0.3 -0.9 96 -10 -10 тепло 1015.1 1007.4
03 18.11 В 15 3000 м слабый ливневой снег {метель} 10/10 300 м
[Cb cap]
+0.1 -0.5 96 -10 -10 тепло 1011.0 1003.3
06 18.11 В 15 7000 м слабый ливневой снег {метель} 10/10 300 м
[Cb cap]
0.0 -0.6 96 -10 -10 тепло 1007.9 1000.2 +0.5 0.7
09 18.11 ЮВ 15 5000 м слабый ливневой снег {метель} 10/10 600 м
[Cb cap]
0.0 -0.8 94 -10 -10 тепло 1004.0 996.3
12 18.11 ЮВ 23 50 км {ливн. осадки, метель} 10/10 600 м
[Cb cap]
+0.7 +0.1 96 -10 -10 тепло 999.7 992.1
15 18.11 В 23 7000 м ливневой дождь 10/10 600 м
[Cb cap]
+1.4 +1.1 98 -9 -9 тепло 995.8 988.2
18 18.11 ЮВ 18 200 м ливневой дождь {туман} туман ?/? +0.5 +0.5 100 -4 -4 тепло 994.2 986.6 -0.1 1 1
21 18.11 З 15 5000 м слабый ливневой снег {туман} 10/10 300 м
[Cb cap]
-2.4 -4.6 85 -13 -13 тепло 994.5 986.9 -2.3
00 19.11 З 23 800 м слабый ливневой снег {туман} 10/10 300 м
[Cb cap]
-4.0 -5.9 87 -17 -17 по сезону 995.8 988.1
03 19.11 З 27 50 км позёмок {ливн. осадки, метель} 9/9 600 м
[Cb cap]
-4.6 -7.7 79 -18 -18 по сезону 996.8 989.1
06 19.11 З 31 50 км позёмок {ливн. осадки, метель} 8/4 600 м
[Cb cap Ac trans]
-5.2 -8.5 78 -20 -20 по сезону 999.3 991.6 +0.5 2
09 19.11 З 31 50 км позёмок {метель} 9/9 600 м
[Cb cap]
-7.4 -10.4 79 -23 -23 по сезону 1003.9 996.1
12 19.11 З 31 50 км {метель} 6/6 600 м
[Cb cap]
-9.9 -14.1 71 -26 -26 по сезону 1010.4 1002.5
15 19.11 З 27 50 км 3/0
[Ac trans]
-11.4 -16.7 65 -27 -27 по сезону 1017.6 1009.6
18 19.11 З 19 50 км 3/0
[Ac trans]
-11.8 -17.0 65 -26 -26 по сезону 1020.9 1012.9 -11.8 1
21 19.11 СЗ 5 50 км 6/0
[Ac trans Ci fib]
-12.8 -17.1 70 -21 -21 по сезону 1023.1 1014.9 -13.0
00 20.11 СЗ 3 50 км 9/3 600 м
[Sc Ac trans]
-11.7 -16.1 70 -18 -18 по сезону 1022.3 1014.3

 

Местоположение метеостанции Анадырь (Чукотка, Россия): широта 64.78 долгота 177.50 высота над уровнем моря 61 м.

В архиве по умолчанию представлена погода в Анадыре за последнюю неделю. Архивные данные за месяц целиком и за предыдущие месяцы, начиная с января 2011 года, Вы можете получить, выбрав интересующий диапазон дат из раскрывающегося списка и нажав кнопку "Ввод!".

Внимание! Время в таблицах - всемирное. Для получения местного времени необходимо прибавить поправку, которая в Анадыре равна 12 ч.

Смотрите также архив погоды в соседних городах и на ближайших метеорологических станциях:

Погода в Анадыре АМС (Чукотка, Россия) (7 км)
Погода в Канчалане (Чукотка, Россия) (58 км)
Погода в Танюрере (Чукотка, Россия) (147 км)
Погода в Эньмувееме (Чукотка, Россия) (263 км)
Погода в Маркове (Чукотка, Россия) (337 км)
Погода в Майской (Чукотка, Россия) (457 км)
Погода в Слаутном (Камчатский край, Россия) (504 км)
Погода в Паляваам-Глубокой (Чукотка, Россия) (505 км)
Погода в Илирнее (Чукотка, Россия) (513 км)
Погода в Комсомольской (Чукотка, Россия) (525 км)

Пояснения к столбцам:

Ветер - указаны скорость ветра в м/с - средняя за 10 мин, порывы в срок и между сроками (в фигурных скобках) и направление, откуда дует ветер: С - северный, СВ - северо-восточный, В - восточный, ЮВ - юго-восточный, Ю - южный, ЮЗ - юго-западный, З - западный, СЗ - северо-западный.
Видимость - горизонтальная дальность видимости в метрах или километрах. При видимости от 1 до 10 км при отсутствии осадков обычно наблюдается дымка, при ухудшении видимости до 1 км и менее - туман. В сухую погоду видимость может ухудшаться дымом, пылью или мглою.
Явления - указаны атмосферные явления, наблюдавшиеся в срок или в последний час перед сроком; фигурными скобками обозначены явления, наблюдавшиеся между сроками (за 1-3 часа до срока); квадратными скобками обозначены град или гололедные отложения с указанием их диаметра в мм.
Облачность - указаны через наклонную черту общая и нижняя облачность в баллах и высота нижней границы облаков в метрах; квадратными скобками обозначены формы облаков: Ci - перистые, Cs - перисто-слоистые, Cc - перисто-кучевые, Ac - высококучевые, As - высокослоистые, Sc - слоисто-кучевые, Ns - слоисто-дождевые, Cu - кучевые, Cb - кучево-дождевые. Подробнее классификацию облаков см. в Атласе облаков (PDF).
T - Температура воздуха - температура, измеренная на высоте 2 м над землей.
Td - Температура точки росы - температура, при понижении до которой содержащийся в воздухе водяной пар достигнет насыщения.
f - Относительная влажность воздуха - влажноcть воздуха, измеренная на высоте 2 м над землей.
Te - Эффективная температура - температура, которую ощущает одетый по сезону человек в тени. Характеристика душности погоды. При расчете учитывается влияние влажности воздуха и скорости ветра на теплоощущения человека.
Tes - Эффективная температура на солнце - температура, которую ощущает человек, с поправкой на солнечный нагрев. Характеристика знойности погоды. Зависит от высоты солнца над горизонтом, облачности и скорости ветра. Ночью, в пасмурную погоду, а также при ветре 12 м/с и более поправка равна нулю.
P - Атмосферное давление - приведенное к уровню моря атмосферное давление.
Po - Атмосферное давление - измеренное на уровне метеостанции атмосферное давление.
Tmin - Минимальная температура - минимум температуры воздуха на высоте 2 м над землей.
Tmax - Максимальная температура - максимум температуры воздуха на высоте 2 м над землей.
R - Количество осадков - Количество выпавших осадков за период времени, мм. При наведении курсора мыши на число - период времени, за который выпало указанное количество осадков.
R24 - Количество осадков - Количество выпавших осадков за 24 часа, мм.
S - Снежный покров - Высота снежного покрова, см. При наведении курсора мыши на число - состояние снежного покрова и степень покрытия местности в баллах.